Weather Roundup
Issued by NWS

Home | Current Version | Previous Version | Graphics & Text | Print | Product List | Glossary On
Versions: 1 2 3 4 5 6 7 8 9 10 11 12 13 14 15 16 17 18 19 20 21 22 23 24 25 26 27 28 29 30 31 32 33 34 35 36 37 38 39 40 41 42 43 44 45 46 47 48 49 50
000
NZUS93 KARX 040210
HRRWXR

CURRENT HOURLY OBSERVATIONS ACROSS
MUCH OF THE UPPER MISSISSIPPI VALLEY
NATIONAL WEATHER SERVICE LA CROSSE WI
900 PM CDT FRI JUL 03 2015


...SOUTHEAST MINNESOTA...


CITY           SKY/WX    TMP DP  RH WIND       PRES   REMARKS
ROCHESTER      PTCLDY    66  57  72 SW6       29.94S
ROCHESTER/MAYO FAIR      72  55  55 W3        29.94S
WINONA         CLEAR     70  59  68 CALM      29.91F
AUSTIN         PTCLDY    70  55  60 CALM      29.94S
ALBERT LEA     PTCLDY    70  55  60 CALM      29.94S
DODGE CENTER   PTCLDY    70  57  64 CALM      29.94S
PRESTON        PTCLDY    67  57  69 W5        29.94S
OWATONNA       PTCLDY    66  57  72 CALM      29.94R
FARIBAULT      PTCLDY    66  61  82 CALM      29.93S
$$

...ELSEWHERE IN MINNESOTA...


CITY           SKY/WX    TMP DP  RH WIND       PRES   REMARKS
MINNEAPOLIS    MOCLDY    76  58  53 SW5       29.90S
INTNL FALLS    CLEAR     66  58  75 CALM      29.90S
DULUTH         PTCLDY    72  57  59 N5        29.89R
RED WING       CLEAR     68  61  77 CALM      29.90S
REDWOOD FALLS  PTCLDY    74  64  71 S5        29.90F
MANKATO        PTCLDY    73  57  56 CALM      29.92S
WORTHINGTON    PTCLDY    70  59  68 SW6       29.95S
FAIRMONT       CLEAR     72  54  53 CALM      29.93S
$$

...SOUTHWEST WISCONSIN...


CITY           SKY/WX    TMP DP  RH WIND       PRES   REMARKS
LA CROSSE      CLEAR     70  59  68 SW3       29.90F
PRAIRIE DU CHI CLEAR     67  60  78 CALM      29.92S
BOSCOBEL       CLEAR     65  61  87 CALM      29.92S
LONE ROCK      CLEAR     65  59  81 CALM      29.92F
PLATTEVILLE    CLEAR     68  52  57 W5        29.94S
FORT MC COY    CLEAR     65  58  77 CALM      29.92F
CAMP DOUGLAS   CLEAR     64  64 100 W2        29.91S
VIROQUA        FAIR      67  59  73 SW3       29.93F
WIS DELLS      CLEAR     66  56  69 CALM      29.92S
$$

...ELSEWHERE IN WISCONSIN...


CITY           SKY/WX    TMP DP  RH WIND       PRES   REMARKS
MILWAUKEE      MOCLDY    63  53  70 SE3       29.92S
MADISON        PTCLDY    65  55  70 CALM      29.92S
GREEN BAY      CLOUDY    71  57  61 S5        29.89S
EAU CLAIRE     PTCLDY    70  58  65 SW6       29.89S
BLACK RVR FLS  FAIR      63  62  96 CALM      29.91S
MEDFORD        PTCLDY    66  58  76 SW5       29.91S
WAUSAU         CLEAR     70  56  61 W7        29.89S
WIS RAPIDS     CLEAR     67  57  70 W6        29.92S
MARSHFIELD     CLEAR     67  56  67 W5        29.91F
RICE LAKE      PTCLDY    70  60  71 SW5       29.91S
$$

...NORTHEAST IOWA...


CITY           SKY/WX    TMP DP  RH WIND       PRES   REMARKS
DECORAH          N/A    N/A N/A N/A MISG        N/A
MASON CITY     CLEAR     68  57  68 CALM      29.96S
CHARLES CITY   PTCLDY    68  64  88 CALM      29.95R
OELWEIN        CLEAR     68  63  83 W3        29.95S
$$

...ELSEWHERE IN IOWA...


CITY           SKY/WX    TMP DP  RH WIND       PRES   REMARKS
DES MOINES     CLEAR     73  58  59 S5        29.94S
IOWA CITY      CLEAR     68  57  68 CALM      29.94S
FORT DODGE     CLEAR     64  55  72 CALM      29.96S
$$

...NORTHERN ILLINOIS...


CITY           SKY/WX    TMP DP  RH WIND       PRES   REMARKS
CHICAGO-OHARE  MOCLDY    66  52  60 SE5       29.92R
CHICAGO-MIDWAY MOCLDY    69  54  58 E6        29.92S
MOLINE         CLEAR     66  61  84 CALM      29.92S
ROCKFORD       CLEAR     69  60  73 W3        29.93S
PEORIA         CLEAR     71  61  70 N3        29.92R
$$

NOTE: "FAIR" INDICATES FEW OR NO CLOUDS BELOW 12,000 FEET WITH NO
SIGNIFICANT WEATHER AND/OR OBSTRUCTIONS TO VISIBILITY. WIND
SPEEDS ARE IN MILES-PER-HOUR.



USA.gov is the U.S. government's official web portal to all federal, state and local government web resources and services.